Theta_e
293 294 294 295 296 297 298 299 301 302 303 305 307 309 311 310 309 305 300 299 293 287 287 285 286 281 281 282 278 279 278 276 271 270 266 264 263 266 263 268 267 266 265 265 261 257 262 275 274 273 278 278 278 275
292 292 293 293 294 296 297 297 298 300 301 302 304 306 308 310 309 307 298 299 299 291 288 289 289 288 289 288 284 281 281 276 279 275 267 264 262 258 261 264 271 267 271 266 268 269 276 276 277 279 278 278 278 278
291 291 291 292 292 293 294 295 296 298 299 300 301 303 306 307 309 307 302 299 295 288 286 286 285 289 290 290 291 279 282 283 281 281 273 270 265 267 262 264 265 270 273 269 270 275 276 278 278 278 278 278 280 279
290 290 290 290 291 292 292 293 294 295 296 298 300 301 302 305 307 308 303 300 295 287 284 286 292 290 290 291 292 289 285 283 281 280 274 270 267 274 269 272 271 273 273 270 269 276 278 280 281 281 281 280 279 279
289 290 290 291 290 290 291 291 292 292 293 295 297 299 300 301 305 307 306 302 298 291 283 284 286 290 291 289 290 288 285 282 279 277 273 270 275 273 270 270 270 273 272 272 277 280 280 282 280 280 279 279 279 279
289 289 289 290 290 290 290 290 291 292 292 293 295 297 298 300 301 301 292 303 299 298 285 281 284 285 287 288 288 287 285 284 283 280 276 277 278 279 270 266 279 280 282 284 282 282 282 284 282 280 280 280 280 279
289 289 290 290 289 289 289 290 290 291 291 292 293 295 295 297 297 292 291 294 300 298 285 278 278 281 286 286 286 285 285 283 283 281 279 277 277 281 268 275 282 280 282 283 285 283 281 283 281 279 279 281 276 276
289 289 290 290 289 289 289 289 289 290 291 292 292 293 294 295 296 291 297 301 300 292 286 279 273 278 285 280 279 284 282 283 282 281 278 278 278 279 274 281 279 284 281 279 282 282 283 284 277 277 274 273 273 276
289 289 289 289 289 289 289 288 289 289 290 291 291 292 290 289 286 288 301 302 300 288 282 277 275 273 282 279 280 280 282 277 282 280 277 280 276 274 279 280 278 280 280 282 280 283 282 280 280 280 279 278 274 278
288 288 289 289 289 288 288 287 288 288 289 290 288 283 280 285 297 298 293 288 284 284 283 281 279 275 281 277 277 277 279 276 273 273 276 276 277 282 285 284 278 280 282 280 276 278 268 273 276 279 279 280 279 278
287 287 288 288 288 287 287 287 288 288 288 284 280 279 281 292 288 286 283 281 280 278 282 280 282 275 279 275 274 277 275 275 272 270 275 273 269 281 286 286 287 280 282 283 284 285 283 284 283 278 277 276 275 275
287 287 287 287 287 287 287 287 287 283 280 281 283 285 284 284 283 280 278 280 278 276 279 280 277 274 274 280 276 275 275 274 271 272 271 265 277 285 284 286 287 287 286 285 286 285 285 282 282 281 280 277 275 275
288 287 286 286 287 287 287 287 287 287 285 281 279 276 278 280 276 275 273 274 275 278 277 278 277 275 276 279 275 273 271 270 272 267 266 269 279 272 282 283 286 276 283 282 277 272 273 277 272 277 278 276 273 271
288 287 287 287 287 287 287 288 287 285 281 275 273 268 273 274 271 275 272 274 275 272 279 281 272 277 277 274 273 271 269 269 267 260 263 276 279 276 279 278 274 279 277 276 274 272 271 270 271 268 269 267 266 269
287 287 287 286 286 286 287 287 287 282 278 274 275 269 272 273 277 265 267 273 272 282 283 279 269 272 272 272 271 266 263 266 266 267 270 281 275 278 281 284 278 274 274 274 268 268 268 266 266 266 262 261 261 262
286 285 279 285 286 286 287 285 283 282 279 276 275 272 272 265 272 277 269 273 272 283 284 278 275 274 272 270 265 264 267 266 271 266 268 269 274 279 280 275 277 279 276 272 269 266 265 265 265 266 258 258 258 258
285 273 284 286 285 285 286 280 280 277 275 274 271 270 275 269 274 273 279 276 283 283 278 273 274 273 270 268 260 263 267 264 260 262 265 269 270 271 273 274 276 275 274 273 266 263 263 258 257 259 264 259 257 257
271 277 285 286 282 279 276 278 276 274 270 266 266 270 268 266 267 262 256 269 282 282 277 271 270 266 268 266 259 254 252 253 255 257 258 261 264 266 270 272 272 274 272 268 267 264 261 260 262 264 260 258 260 257
280 279 283 286 279 268 268 273 269 269 266 269 268 271 267 262 261 258 257 257 260 260 263 261 254 253 252 251 248 250 250 251 251 253 256 260 266 268 268 268 269 269 269 265 263 266 265 264 262 263 262 261 264 258
279 278 278 280 276 263 263 263 263 265 264 263 265 264 260 258 257 256 255 253 254 252 248 248 247 248 249 251 251 251 252 253 253 254 256 262 264 266 268 266 267 263 263 260 259 260 260 260 257 257 261 260 263 261
268 268 269 271 263 258 255 252 259 257 256 260 260 261 259 258 255 252 251 252 249 247 246 248 248 250 251 252 253 253 253 254 255 255 255 257 261 262 268 267 263 265 264 262 263 261 262 262 261 260 261 260 260 260
259 267 257 258 259 259 254 253 251 253 257 252 256 253 253 252 252 251 252 248 247 248 249 248 249 249 249 250 252 254 256 256 256 257 259 261 262 264 266 267 267 266 265 263 260 266 261 258 261 262 263 258 261 260
258 258 253 251 252 253 250 253 252 253 250 248 251 247 247 249 252 254 248 248 248 251 250 250 250 251 251 253 255 255 256 255 255 256 259 261 265 268 267 267 267 268 267 266 266 269 268 266 266 264 263 262 261 260
256 245 246 244 244 244 248 247 250 249 249 245 244 244 246 249 252 248 245 247 249 250 249 249 249 249 251 252 252 253 254 255 255 257 261 261 263 266 266 265 265 265 266 270 270 269 268 267 267 266 265 265 262 264
246 242 243 243 245 242 242 244 243 245 245 246 241 243 246 250 246 245 245 246 248 248 248 249 249 249 248 250 251 253 255 254 254 254 259 260 260 263 264 266 265 264 265 266 268 271 271 270 269 268 268 268 268 268
239 241 242 243 243 240 240 239 241 242 243 241 243 246 249 247 245 243 245 247 248 248 248 248 247 248 249 251 251 251 253 255 255 258 259 259 258 258 258 259 261 263 264 265 266 268 270 272 270 268 267 267 268 269
239 240 242 247 243 243 245 245 245 242 240 241 244 245 245 243 243 245 248 250 248 249 250 250 250 250 250 251 252 254 255 255 255 256 258 261 259 258 258 257 258 261 263 266 265 266 267 267 266 265 264 264 264 266
241 243 239 243 243 246 245 246 244 243 243 246 245 242 241 241 241 247 249 251 251 251 251 251 252 252 252 252 253 254 253 255 259 261 262 261 261 258 258 260 261 265 264 266 265 264 264 263 262 262 261 261 261 263
242 242 242 245 246 246 246 245 245 247 248 241 243 243 244 248 249 249 250 251 251 250 249 249 250 252 253 253 254 254 253 253 253 253 253 253 254 255 257 259 260 260 262 262 267 265 263 262 261 261 260 260 259 260
238 238 240 243 244 245 247 247 247 249 248 247 248 247 247 248 250 253 251 250 249 248 249 250 250 251 250 249 249 251 254 253 253 253 251 251 252 255 256 257 258 259 260 260 260 259 262 260 260 258 257 257 257 256
235 235 238 242 245 247 248 248 250 249 249 249 250 248 247 248 250 252 251 251 250 250 249 248 249 250 250 249 248 248 249 252 252 255 255 254 254 254 255 256 257 257 258 257 257 257 256 255 255 253 252 251 251 251
235 233 235 239 244 246 247 247 248 248 248 248 248 249 249 249 248 250 251 251 249 248 248 248 247 248 251 251 251 251 252 251 252 255 255 254 253 253 254 255 255 255 255 254 253 253 252 252 251 250 249 248 248 248
232 231 231 233 238 242 245 244 248 248 248 248 248 248 248 248 247 250 253 252 250 249 248 249 249 250 252 252 251 251 252 251 253 254 257 257 254 254 252 252 253 252 252 251 250 250 249 248 247 247 247 246 246 245
Wind_Speed
27 27 26 26 25 25 24 26 24 20 19 16 18 15 38 43 47 30 16 22 18 9 8 14 13 10 6 9 9 10 7 1 2 5 6 6 5 9 2 5 11 12 12 8 5 4 16 10 5 10 7 1 4 4
24 25 24 26 26 24 25 23 24 24 20 19 18 17 16 40 45 43 11 14 15 6 3 9 11 5 10 14 11 14 6 8 9 6 2 4 3 1 4 5 2 5 12 11 17 16 4 12 7 10 1 4 6 6
26 23 25 25 26 26 24 23 22 21 22 20 18 17 19 15 41 39 20 14 12 10 3 3 11 10 3 9 20 10 3 5 4 1 6 3 5 6 7 9 4 6 6 5 2 11 21 20 17 14 8 14 14 9
25 27 24 23 24 26 26 24 23 22 22 22 21 18 17 18 17 42 21 13 15 5 7 7 10 17 13 11 19 9 10 9 6 2 3 5 4 7 5 3 6 7 13 7 10 18 13 26 19 17 18 14 12 9
26 25 26 28 25 23 24 25 26 24 23 23 23 19 17 18 18 10 17 14 20 15 9 3 1 12 18 19 18 16 16 11 5 4 3 4 3 4 1 2 9 9 10 9 15 11 7 10 5 6 8 8 11 9
25 24 22 24 26 23 23 23 24 26 25 23 23 17 16 17 15 5 10 14 19 15 6 5 2 2 14 17 18 17 13 7 4 5 4 4 3 4 4 8 14 18 19 24 25 5 11 15 8 7 8 10 10 10
24 26 25 26 23 23 21 21 22 24 23 25 20 23 20 21 9 5 2 2 27 12 4 5 4 1 10 9 7 7 9 3 4 4 5 4 3 5 2 17 9 12 20 23 25 13 17 20 14 7 11 13 6 7
24 26 25 24 22 23 20 19 18 20 19 21 22 20 14 20 17 9 7 7 20 10 5 7 3 4 7 6 5 3 6 4 4 4 3 4 4 2 10 34 4 17 13 13 16 16 25 14 3 6 4 3 7 11
21 21 22 17 20 22 20 17 18 17 17 17 17 19 8 6 6 5 14 18 11 5 8 6 13 8 8 4 5 3 3 5 3 6 5 7 5 13 31 12 10 10 12 11 11 20 19 19 19 16 12 12 11 15
17 15 17 19 20 17 18 15 15 15 15 13 3 5 5 7 8 14 7 9 6 5 3 4 8 7 10 5 3 6 4 4 5 5 5 6 12 27 31 20 7 11 14 8 7 16 2 11 12 14 17 15 12 12
11 11 11 12 14 14 14 12 14 11 12 3 3 4 5 6 6 7 8 8 5 5 5 4 10 13 2 8 6 1 6 5 5 6 8 6 12 32 36 25 21 13 15 20 23 23 12 17 13 10 12 11 9 10
12 12 12 12 14 14 13 14 13 5 4 5 2 4 3 5 7 10 8 6 7 8 5 11 9 10 4 4 5 5 5 4 6 7 5 7 22 23 8 12 15 24 29 33 22 23 20 17 16 14 13 10 10 10
14 14 12 10 13 15 17 16 15 13 7 2 3 4 7 10 11 10 16 6 7 6 9 9 13 7 5 3 5 5 7 5 11 3 8 12 8 1 9 11 19 3 8 9 10 5 5 9 6 11 13 8 7 7
16 15 14 12 14 16 18 20 16 11 3 5 6 7 8 7 5 3 5 7 5 6 11 17 6 7 5 5 5 8 3 7 6 6 13 12 9 7 8 7 6 12 11 10 10 8 8 8 7 5 6 4 5 7
11 7 7 12 11 12 12 13 15 3 4 6 6 8 6 4 1 3 4 4 2 11 16 11 4 4 4 6 3 7 4 7 11 12 9 8 8 10 13 15 10 5 7 11 7 7 9 6 6 6 6 4 4 4
4 5 3 6 9 11 12 10 4 4 5 5 8 5 3 4 4 2 1 2 3 14 14 4 6 6 5 7 7 9 14 12 10 5 4 1 4 9 7 5 7 7 7 6 7 6 4 6 7 6 3 2 3 4
8 1 7 9 9 7 7 3 3 6 5 5 5 2 4 5 4 4 3 2 4 14 9 5 9 6 7 5 4 6 9 2 3 5 5 7 7 7 6 3 6 6 7 7 6 6 5 4 4 3 4 3 4 3
3 5 9 10 2 4 3 1 2 3 3 2 1 1 2 9 6 8 8 13 5 8 5 3 5 5 5 9 4 2 4 7 6 5 6 9 12 11 6 6 3 4 5 6 6 6 6 6 5 5 4 4 5 5
8 9 12 14 3 4 2 3 4 2 2 2 4 3 2 6 9 7 9 11 6 7 6 6 10 5 4 3 3 4 5 4 7 10 11 13 8 9 8 6 1 3 7 5 5 4 4 5 3 3 4 4 4 2
8 24 19 16 11 5 6 4 5 4 3 4 4 7 5 5 5 6 11 13 8 7 12 10 5 4 5 7 6 7 8 8 8 11 7 5 7 12 9 7 1 3 5 4 4 3 3 2 0 2 4 2 3 3
12 12 17 11 5 8 6 5 3 4 5 4 4 5 5 3 7 11 9 11 9 10 6 4 7 8 10 9 8 7 9 7 7 5 6 10 10 10 9 4 5 2 2 3 4 1 2 3 4 4 5 2 1 3
4 15 6 10 7 5 6 5 3 4 4 2 5 5 6 5 6 8 4 12 7 4 6 8 10 10 11 11 10 10 9 10 9 7 9 11 7 6 6 5 4 3 2 2 3 3 2 2 3 4 5 3 3 4
9 8 8 12 8 13 6 7 6 8 7 7 4 6 5 4 5 3 7 4 3 5 8 9 13 13 11 12 10 9 9 10 7 7 8 7 5 4 4 6 7 5 3 3 1 3 3 4 5 6 5 4 4 4
13 11 10 8 9 8 8 9 6 6 6 7 6 5 5 4 3 5 6 2 4 9 11 15 12 11 10 11 8 9 10 9 9 8 8 8 6 6 6 7 7 6 6 4 3 5 4 4 5 5 5 5 4 4
15 13 9 12 7 10 10 8 9 9 5 6 6 6 6 5 6 7 4 6 9 10 12 12 11 10 9 10 9 9 11 9 8 8 9 8 7 7 8 4 7 9 9 8 8 6 5 4 4 5 5 5 6 6
14 7 7 9 6 6 5 6 7 6 5 7 6 4 4 5 7 6 4 8 8 11 11 11 11 11 10 8 10 10 12 10 9 5 8 9 9 7 8 8 7 8 10 8 6 6 6 8 10 12 11 10 9 7
11 7 5 1 2 3 2 1 1 4 6 7 5 8 7 7 5 5 5 5 9 10 10 9 9 9 10 10 10 10 9 8 6 7 6 5 8 8 8 8 9 7 8 8 6 7 9 11 11 11 11 11 11 10
2 5 6 10 5 3 4 4 6 7 5 5 3 7 5 4 3 5 4 9 9 10 9 8 7 8 8 9 8 9 8 11 9 7 4 3 5 10 11 7 7 13 9 11 10 11 11 11 12 13 14 13 11 11
5 8 4 7 5 5 7 6 6 5 6 3 3 3 3 1 2 3 6 7 8 7 8 9 10 9 8 8 8 7 10 11 14 14 13 10 8 8 11 9 8 8 8 9 17 17 16 13 14 13 15 12 11 11
7 5 6 7 5 7 3 3 3 3 3 2 2 2 1 1 2 3 6 6 7 8 8 7 7 9 9 10 10 11 9 10 9 8 6 8 7 8 9 9 10 10 8 9 10 12 17 14 14 13 14 11 11 11
4 4 4 3 3 2 5 5 3 2 2 3 2 1 1 2 2 2 9 8 8 8 9 10 10 10 11 11 11 10 11 11 15 14 11 6 6 7 8 9 8 8 9 11 11 12 12 13 13 14 16 15 14 12
5 4 3 6 5 5 5 6 3 2 2 3 4 3 3 1 3 3 5 8 8 9 11 10 9 10 10 8 7 6 8 8 10 11 14 10 9 10 9 9 9 9 11 12 12 12 13 13 11 12 12 15 14 13
4 2 1 1 5 7 5 7 3 4 3 3 3 2 2 2 2 2 3 6 6 7 9 8 7 7 8 9 10 8 10 7 11 16 16 16 16 13 8 8 8 8 10 10 10 10 13 15 14 14 14 13 12 11
Wind_Direction
271 267 270 272 278 273 273 269 270 283 294 288 274 281 214 201 195 189 197 182 182 202 189 195 181 148 138 172 153 153 110 216 83 172 156 204 184 213 134 158 170 165 159 191 151 202 281 144 81 183 211 139 157 212
269 270 271 274 275 282 280 277 272 267 275 290 293 302 307 205 193 194 201 182 195 202 228 186 224 169 171 171 132 187 178 163 167 152 204 109 178 86 161 235 156 222 192 181 191 209 230 196 220 221 107 217 225 224
275 270 267 269 270 274 277 283 285 286 275 270 286 293 296 315 205 193 200 167 174 206 294 186 204 200 179 170 157 145 204 170 194 99 150 154 202 133 173 231 180 248 175 221 103 235 242 246 250 258 236 243 260 241
267 273 277 269 264 267 267 271 275 283 296 291 272 278 292 282 302 197 202 167 172 126 220 249 173 197 167 164 177 141 128 106 99 144 150 159 171 193 204 195 208 192 148 184 266 269 273 271 252 246 246 246 247 246
261 265 268 265 267 264 265 270 268 267 273 286 290 281 282 290 267 239 203 185 178 173 170 179 94 209 180 173 172 152 142 139 144 156 168 211 161 129 258 25 232 186 173 188 242 195 200 262 209 194 205 222 219 226
263 262 270 266 264 260 265 266 264 264 265 262 280 283 308 280 304 275 211 198 187 180 130 167 34 186 175 183 163 161 158 154 165 164 182 218 215 167 199 244 242 194 211 222 244 139 217 251 245 188 204 243 231 219
263 270 272 264 261 265 261 265 265 261 266 262 261 280 271 314 273 227 -0 222 169 159 135 132 171 250 164 137 162 162 170 145 150 179 207 156 197 172 217 256 200 194 211 224 239 253 267 251 247 200 208 240 202 225
271 269 266 255 256 260 265 266 270 267 264 271 258 268 272 291 288 261 241 187 162 161 157 154 125 153 181 145 131 149 160 151 187 183 135 156 116 182 250 242 273 225 213 229 229 224 240 252 231 239 193 175 210 239
263 270 269 256 249 258 262 259 263 265 261 264 268 255 282 236 219 226 167 171 176 187 177 152 150 183 155 97 120 115 137 165 159 207 175 152 161 221 234 247 204 187 195 215 221 234 238 241 248 253 247 250 235 252
271 293 271 254 255 252 256 262 265 265 254 257 275 197 227 209 178 155 179 189 165 202 212 161 111 157 157 154 135 127 145 171 189 216 125 209 243 249 249 232 171 193 210 195 229 249 220 251 233 237 234 244 234 235
276 278 279 262 257 258 250 240 256 256 249 172 226 232 254 278 154 192 215 173 183 197 166 175 160 139 203 150 128 164 147 167 190 208 171 206 256 238 241 240 234 204 212 225 231 254 242 251 255 232 238 228 220 223
275 272 275 259 249 252 248 240 239 229 167 206 298 305 275 230 201 182 183 166 185 192 161 170 149 124 160 121 113 163 157 163 194 136 161 243 249 249 177 213 218 221 224 236 234 245 246 239 237 241 242 230 216 221
254 259 262 255 252 250 243 238 230 227 230 65 186 260 235 217 207 203 176 160 158 164 166 164 148 123 123 132 110 140 156 178 124 127 218 234 272 310 166 189 227 232 208 223 220 214 217 225 190 207 235 232 216 215
252 256 252 258 275 280 256 234 231 230 151 220 188 227 254 215 246 177 164 149 175 140 157 158 119 132 123 129 135 140 111 143 174 213 217 246 221 168 231 218 176 218 199 208 210 202 215 214 221 230 232 208 199 231
263 277 276 270 276 281 267 248 234 192 192 230 217 223 234 283 238 252 282 99 164 147 150 137 53 86 116 120 118 120 126 185 213 231 210 239 178 187 215 221 213 150 189 206 164 180 209 192 198 234 227 215 207 240
206 238 274 288 293 284 258 244 212 187 209 209 236 241 302 15 315 7 353 314 211 159 142 81 132 155 165 131 143 197 155 196 234 212 253 208 191 217 227 201 188 193 184 159 163 169 172 174 195 215 156 155 201 196
103 191 328 313 311 332 310 126 181 215 228 228 214 319 226 260 252 272 131 250 220 165 159 148 163 173 111 139 196 186 195 232 334 317 330 348 333 310 312 208 183 177 182 154 149 154 160 129 121 139 164 191 175 174
43 310 360 342 19 10 2 56 236 224 295 279 79 243 279 24 332 38 337 340 242 197 166 93 121 134 151 168 224 359 343 320 291 298 308 316 317 309 311 279 276 170 160 164 144 139 132 138 186 213 157 179 139 103
56 24 4 355 103 95 47 12 4 259 263 3 338 330 36 107 84 37 8 345 329 348 61 38 56 32 34 28 346 321 323 332 312 316 305 295 297 331 321 314 193 158 147 144 149 177 161 157 225 172 150 160 126 150
54 28 11 21 31 55 35 16 338 11 34 -0 343 10 60 50 4 20 24 8 15 31 40 41 39 353 324 315 303 294 291 301 308 314 299 307 352 354 350 331 328 127 99 74 79 89 100 82 6 158 123 144 118 161
28 350 9 17 44 56 65 353 4 21 326 41 333 20 61 53 27 11 26 4 50 34 24 14 334 317 311 296 289 282 289 285 290 269 288 300 321 320 313 342 306 25 81 138 123 141 175 192 175 141 112 112 93 94
345 12 46 8 47 48 75 32 315 294 347 334 21 37 27 27 8 28 21 34 52 26 352 321 323 320 316 316 310 303 300 303 293 280 277 273 289 317 334 340 315 348 57 88 143 163 199 195 112 95 102 106 88 91
21 34 44 15 42 23 358 342 31 11 27 357 16 35 18 36 23 4 66 63 46 350 338 332 325 319 311 306 314 327 335 335 324 329 321 306 289 5 12 17 7 4 25 33 52 112 111 112 89 89 95 87 90 78
35 50 37 34 24 5 338 12 6 4 17 24 13 31 24 15 345 67 82 80 359 341 345 344 338 334 336 347 351 342 342 343 342 338 345 338 356 31 36 41 18 12 350 313 69 78 75 82 100 104 105 102 86 96
63 3 42 3 12 11 17 4 353 6 14 351 41 16 349 340 49 48 36 351 349 347 340 337 338 340 332 326 327 331 340 350 343 325 0 360 355 17 20 28 47 29 4 10 19 45 79 97 91 90 84 84 99 95
65 341 43 354 352 37 339 11 359 350 356 3 11 335 328 53 45 40 3 340 348 336 332 332 328 325 322 328 328 332 335 336 331 345 15 16 20 25 19 10 12 20 6 350 350 8 50 79 80 76 64 51 53 81
46 337 329 302 317 297 353 321 324 36 11 10 355 7 25 47 27 340 336 348 330 324 318 313 312 309 309 324 332 333 332 331 293 266 289 14 23 25 29 1 355 344 332 2 12 35 62 70 73 72 71 57 44 45
74 37 343 316 329 -0 23 17 29 13 353 347 28 32 69 31 327 328 316 319 318 314 315 320 323 328 331 331 334 347 344 343 346 15 6 13 39 35 11 354 350 4 14 40 41 51 58 67 71 71 69 64 54 47
10 344 310 353 338 38 31 29 14 352 335 60 70 65 97 157 241 302 317 320 321 328 344 349 351 349 353 352 3 12 12 10 17 27 27 25 10 1 353 353 5 15 25 37 55 66 68 69 71 74 74 72 66 60
331 1 355 350 25 41 6 10 322 309 337 354 72 70 36 257 231 330 352 351 354 353 349 342 339 357 2 360 356 6 22 16 10 20 -0 16 354 331 342 360 14 21 28 43 54 55 55 59 63 61 62 60 57 60
307 341 355 351 39 2 326 295 264 303 4 23 5 38 319 302 327 32 11 356 354 356 355 356 2 8 6 7 5 357 360 359 357 9 19 7 2 360 5 15 21 32 41 50 54 58 64 62 60 65 64 64 59 62
344 45 30 354 324 329 345 5 325 22 2 14 7 360 356 28 24 10 8 358 2 7 360 357 351 350 355 2 1 3 356 342 349 356 20 17 14 11 14 19 28 36 50 54 55 60 65 72 71 70 69 63 60 58
322 347 267 340 337 350 354 335 346 347 39 28 32 360 12 13 40 330 -0 13 2 350 345 334 321 320 344 7 10 358 4 358 7 12 23 42 41 34 31 26 31 45 59 64 62 63 66 72 70 66 63 62 60 56